FW9377 Weather Reports


time (UTC)temp
C
wind
direction
speed
KPH
gust
KPH
rain 1hr
cm
rain 24hr
cm
rain mn
cm
humidity
%
barometer
mb
20260502181559 22 40 8.0 24.1 0.00 5.84 0.00 46 1020.5
20260502163058 21 62 8.0 20.9 0.00 7.42 0.00 55 1021.1
20260502161623 20 71 9.7 24.1 0.00 7.42 0.00 55 1021.0
20260502160132 20 26 3.2 29.0 0.00 7.42 0.00 61 1021.0
20260502151605 18 65 12.9 27.4 0.00 7.42 0.00 68 1020.9
20260502130121 13 52 4.8 14.5 0.00 7.65 0.00 89 1019.6
20260502123128 12 32 0.0 8.0 0.00 7.72 0.00 90 1019.3
20260502121611 12 35 3.2 14.5 0.00 7.72 0.00 90 1018.9
20260502120134 12 39 1.6 9.7 0.00 7.72 0.00 89 1018.9
20260502114559 12 44 3.2 11.3 0.00 7.72 0.00 89 1018.8
20260502113101 12 0 0.0 12.9 0.00 7.72 0.00 89 1018.8
20260502111601 12 46 1.6 8.0 0.00 7.72 0.00 89 1018.5
20260502110059 12 0 3.2 14.5 0.00 7.72 0.00 88 1018.2
20260502104558 12 34 1.6 12.9 0.00 7.90 0.00 88 1018.0
20260502103100 12 0 3.2 12.9 0.00 7.90 0.00 88 1017.9
20260502101603 12 0 1.6 8.0 0.00 7.90 0.00 87 1017.9
20260502064559 13 57 6.4 20.9 0.00 8.59 0.00 90 1016.5
20260502063103 13 53 8.0 20.9 0.00 8.59 0.00 90 1016.3
20260502061600 13 42 11.3 22.5 0.00 8.59 0.00 90 1016.2
20260502060119 13 98 11.3 29.0 0.00 8.59 0.00 91 1016.1
20260502054605 13 58 9.7 25.7 0.00 9.12 0.00 92 1016.1
20260502053102 13 51 8.0 25.7 0.00 9.12 0.00 92 1016.1
20260502051603 13 53 9.7 24.1 0.00 9.12 0.00 92 1016.2
20260502050059 13 38 11.3 20.9 0.00 9.12 0.00 93 1016.0
20260502044602 13 53 9.7 27.4 0.00 9.12 9.12 93 1016.2
20260502043122 13 44 12.9 25.7 0.00 9.12 9.12 93 1016.4
20260502041559 13 30 8.0 22.5 0.00 9.12 9.12 94 1016.1
20260502040108 13 25 9.7 22.5 0.03 9.12 9.12 94 1016.2
20260502034605 13 74 9.7 20.9 0.03 9.12 9.12 94 1016.0
20260502033107 13 89 9.7 19.3 0.03 9.12 9.12 94 1015.9
20260502031559 13 15 6.4 24.1 0.03 9.12 9.12 94 1015.2
20260502030101 13 48 8.0 22.5 0.05 9.09 9.09 94 1014.5
20260502024611 13 57 9.7 22.5 0.10 9.09 9.09 94 1014.6
20260502023058 13 78 11.3 27.4 0.10 9.09 9.09 94 1014.3
20260502021606 14 23 9.7 27.4 0.15 9.09 9.09 94 1014.5
20260502014558 15 40 3.2 17.7 0.15 8.99 8.99 94 1014.2
20260502013059 15 28 8.0 24.1 0.15 8.99 8.99 94 1013.6
20260502011600 15 13 6.4 22.5 0.15 8.94 8.94 94 1013.1
20260502010107 15 0 4.8 17.7 0.20 8.86 8.86 94 1013.6
20260502004607 15 48 3.2 14.5 0.43 8.84 8.84 94 1012.5
20260502003104 15 17 9.7 22.5 0.51 8.84 8.84 94 1011.8
20260502001557 15 37 8.0 19.3 0.56 8.79 8.79 94 1012.1
20260502000105 15 28 9.7 22.5 0.48 8.64 8.64 94 1011.9
20260501234558 15 29 8.0 27.4 0.25 8.41 8.41 94 1012.2
20260501233100 15 38 12.9 32.2 0.18 8.33 8.33 94 1010.9
20260501231559 15 47 9.7 20.9 0.08 8.23 8.23 94 1011.5
20260501230100 15 37 9.7 25.7 0.03 8.15 8.15 94 1011.4
20260501224558 15 50 11.3 27.4 0.23 8.15 8.15 94 1010.8
20260501223105 16 61 9.7 29.0 0.84 8.15 8.15 94 1010.7
20260501221600 16 57 12.9 24.1 1.40 8.15 8.15 94 1010.8
20260501220104 16 46 11.3 19.3 1.40 8.13 8.13 94 1010.9
20260501214559 16 81 3.2 20.9 1.24 7.92 7.92 95 1011.4
20260501213057 16 33 4.8 19.3 0.86 7.29 7.29 94 1011.5
20260501211612 16 63 4.8 22.5 0.61 6.76 6.76 94 1011.2
20260501210100 16 52 12.9 24.1 0.69 6.73 6.73 94 1010.0
20260501204559 16 57 9.7 33.8 0.64 6.68 6.68 94 1009.7
20260501203057 16 60 6.4 17.7 0.46 6.43 6.43 94 1010.9
20260501201602 17 49 4.8 16.1 0.38 6.15 6.15 94 1010.3
20260501200059 17 82 11.3 22.5 0.28 6.05 6.05 94 1009.2
20260501194601 17 35 6.4 19.3 0.36 6.05 6.05 94 1009.3
20260501193114 17 42 3.2 16.1 1.75 5.94 5.94 94 1009.6
20260501191559 17 65 6.4 17.7 1.65 5.77 5.77 94 1009.9
20260501190133 17 31 9.7 22.5 2.49 5.77 5.77 94 1009.1
20260501184612 17 107 4.8 19.3 2.54 5.69 5.69 94 1010.0
20260501183058 17 280 4.8 22.5 1.22 4.22 4.22 94 1011.4